period_start,C,m1,H,J0,J1,J2,J3,J4,J5,JA,JB,JC,JD,JJ,JK,JN,#
2017-12-20 00:02:11,0.11,0.68,0.00,15.63,18.67,22.03,14.26,46.45,1012.95,2060.06,3208.93,2961.40,3378.95,599.81,608.84,6.00,0000 0000 0000 0000 000000
2017-12-20 00:07:12,0.11,0.68,0.00,15.62,18.67,22.04,14.13,46.30,1012.93,2060.04,3206.71,2959.83,3376.92,599.59,608.65,6.05,0000 0000 0000 0000 000000
2017-12-20 00:12:14,0.09,0.69,0.00,15.63,18.67,22.05,14.25,46.39,1013.03,2060.01,3204.55,2958.47,3375.34,600.25,609.26,6.10,0000 0000 0000 0000 000000
2017-12-20 00:17:15,0.09,0.69,0.00,15.64,18.67,22.05,14.21,46.32,1012.98,2060.02,3202.46,2957.19,3373.86,599.95,608.94,6.15,0000 0000 0000 0000 000000
2017-12-20 00:22:17,0.09,0.70,0.00,15.64,18.67,22.05,14.26,46.33,1013.09,2060.01,3200.28,2955.83,3372.44,599.97,609.17,6.20,0000 0000 0000 0000 000000
2017-12-20 00:27:18,0.10,0.70,0.00,15.64,18.67,22.09,14.33,46.42,1012.83,2060.03,3198.14,2954.44,3370.79,599.84,608.66,6.25,0000 0000 0000 0000 000000
2017-12-20 00:32:19,0.10,0.71,0.00,15.63,18.68,22.05,14.23,46.37,1012.84,2060.02,3195.88,2952.93,3369.03,600.24,609.28,6.30,0000 0000 0000 0000 000000
2017-12-20 00:37:21,0.10,0.71,0.00,15.65,18.68,22.08,14.22,46.44,1013.01,2060.02,3193.77,2951.59,3367.41,600.27,609.32,6.35,0000 0000 0000 0000 000000
2017-12-20 00:42:22,0.09,0.72,0.00,15.64,18.69,22.08,14.20,46.48,1013.14,2060.01,3191.77,2950.31,3365.82,599.75,608.87,6.40,0000 0000 0000 0000 000000
2017-12-20 00:47:23,0.08,0.72,0.00,15.66,18.69,22.07,14.22,46.42,1013.04,2060.00,3189.85,2949.04,3364.40,599.89,608.93,6.45,0000 0000 0000 0000 000000
2017-12-20 00:52:24,0.09,0.73,0.00,15.67,18.69,22.09,14.34,46.38,1012.98,2060.00,3188.12,2947.82,3362.93,599.73,608.82,6.50,0000 0000 0000 0000 000000
2017-12-20 00:57:25,0.09,0.73,0.00,15.68,18.69,22.06,14.34,46.44,1012.89,2060.00,3186.14,2946.65,3361.59,600.61,609.52,6.55,0000 0000 0000 0000 000000
2017-12-20 01:02:26,0.08,0.74,0.00,15.68,18.69,22.07,14.19,46.39,1012.94,2060.00,3184.18,2945.45,3360.22,599.67,608.65,6.60,0000 0000 0000 0000 000000
2017-12-20 01:07:27,0.08,0.74,0.00,15.59,18.70,22.10,14.19,46.38,1012.87,2060.01,3182.33,2944.27,3358.90,599.67,608.81,6.65,0000 0000 0000 0000 000000
2017-12-20 01:12:28,0.08,0.74,0.00,15.49,18.71,22.11,14.23,46.44,1012.81,2060.00,3180.50,2943.12,3357.41,600.10,609.31,6.70,0000 0000 0000 0000 000000
2017-12-20 01:17:29,0.10,0.75,0.00,15.46,18.72,22.13,14.29,46.46,1012.79,2060.00,3178.52,2941.73,3355.69,600.07,609.40,6.75,0000 0000 0000 0000 000000
2017-12-20 01:22:31,0.10,0.75,0.00,15.45,18.72,22.10,14.26,46.40,1012.83,2060.00,3176.20,2940.36,3354.12,600.18,609.52,6.80,0000 0000 0000 0000 000000
2017-12-20 01:27:32,0.11,0.76,0.00,15.42,18.72,22.11,14.23,46.41,1012.96,2060.00,3173.59,2938.73,3352.31,599.89,609.48,6.85,0000 0000 0000 0000 000000
2017-12-20 01:32:33,0.09,0.77,0.00,15.42,18.70,22.18,14.31,46.37,1012.93,2060.00,3171.72,2937.52,3350.74,600.16,609.68,6.90,0000 0000 0000 0000 000000
2017-12-20 01:37:34,0.07,0.77,0.00,15.37,18.69,22.14,14.27,46.65,1013.00,2060.01,3170.07,2936.57,3349.61,600.11,609.67,6.95,0000 0000 0000 0000 000000
2017-12-20 01:42:35,0.09,0.77,0.00,15.37,18.69,22.14,14.25,46.66,1013.16,2060.03,3168.04,2935.11,3347.93,599.36,609.09,7.00,0000 0000 0000 0000 000000
2017-12-20 01:47:37,0.08,0.78,0.00,15.35,18.68,22.08,14.28,46.77,1013.17,2060.07,3166.23,2933.98,3346.55,600.19,609.95,7.05,0000 0000 0000 0000 000000
2017-12-20 01:52:38,0.09,0.78,0.00,15.32,18.67,21.97,14.37,46.89,1013.14,2060.11,3164.39,2932.77,3345.19,600.55,610.39,7.10,0000 0000 0000 0000 000000
2017-12-20 01:57:39,0.14,0.79,0.00,15.38,18.67,21.94,14.29,46.91,1013.04,2060.39,3162.37,2931.52,3343.66,600.33,610.00,7.15,0000 0000 0000 0000 000000
2017-12-20 02:02:41,0.09,0.80,0.00,15.50,18.64,21.86,14.33,46.99,1013.02,2060.49,3159.96,2930.06,3341.87,600.13,609.62,7.20,0000 0000 0000 0000 000000
2017-12-20 02:07:42,0.13,0.80,0.00,15.55,18.62,21.83,14.23,46.75,1013.10,2060.52,3157.32,2928.45,3339.96,599.88,609.08,7.25,0000 0000 0000 0000 000000
2017-12-20 02:12:43,0.17,0.81,0.00,15.55,18.60,21.87,14.23,46.72,1013.11,2060.72,3154.14,2926.45,3337.75,599.60,608.92,7.30,0000 0000 0000 0000 000000
2017-12-20 02:17:45,0.17,0.82,0.00,15.54,18.58,21.82,14.20,46.80,1012.97,2060.87,3150.72,2924.34,3335.38,599.76,608.99,7.35,0000 0000 0000 0000 000000
2017-12-20 02:22:46,0.17,0.83,0.00,15.59,18.57,21.86,14.20,46.74,1013.02,2060.92,3147.08,2922.06,3332.76,599.55,608.70,7.40,0000 0000 0000 0000 000000
2017-12-20 02:27:47,0.16,0.83,0.00,15.65,18.57,21.72,14.20,46.63,1013.08,2060.94,3143.52,2919.78,3330.25,599.62,608.78,7.45,0000 0000 0000 0000 000000
2017-12-20 02:32:48,0.16,0.84,0.00,15.69,18.57,21.66,14.23,46.64,1013.14,2060.98,3140.15,2917.45,3327.53,599.98,609.01,7.50,0000 0000 0000 0000 000000
2017-12-20 02:37:49,0.18,0.85,0.00,15.72,18.57,21.76,14.19,46.76,1012.96,2060.95,3136.45,2914.98,3324.60,599.89,608.74,7.55,0000 0000 0000 0000 000000
2017-12-20 02:42:50,0.20,0.86,0.00,15.79,18.57,21.87,14.22,46.67,1012.85,2060.94,3132.27,2912.30,3321.51,599.99,608.50,7.60,0000 0000 0000 0000 000000
2017-12-20 02:47:52,0.51,0.88,0.00,15.83,18.59,21.84,14.35,46.72,1013.00,2060.87,3120.95,2906.63,3315.03,600.14,608.82,7.65,0000 0000 0000 0000 000000
2017-12-20 02:52:53,0.28,0.90,0.00,15.87,18.60,21.90,14.20,46.63,1013.09,2060.64,3113.54,2902.16,3310.09,599.87,608.46,7.70,0000 0000 0000 0000 000000
2017-12-20 02:57:54,0.26,0.92,0.00,15.93,18.63,21.96,14.04,46.54,1012.94,2060.22,3107.22,2897.97,3305.34,599.73,608.12,7.75,0000 0000 0000 0000 000000
2017-12-20 03:02:55,0.32,0.93,0.00,15.98,18.65,22.00,14.28,46.69,1013.10,2060.10,3100.58,2893.93,3300.77,600.21,608.60,7.80,0000 0000 0000 0000 000000
2017-12-20 03:07:56,0.49,0.95,0.00,16.02,18.68,22.05,14.21,46.64,1013.16,2060.03,3088.46,2887.74,3293.72,600.00,608.36,7.85,0000 0000 0000 0000 000000
2017-12-20 03:12:57,0.25,0.97,0.00,16.00,18.71,22.09,14.16,46.63,1013.18,2060.01,3082.89,2884.10,3289.57,599.74,608.16,7.90,0000 0000 0000 0000 000000
2017-12-20 03:17:58,0.24,0.98,0.00,15.97,18.74,22.12,14.23,46.68,1013.20,2060.00,3077.98,2880.79,3285.85,600.05,608.46,7.95,0000 0000 0000 0000 000000
2017-12-20 03:22:59,0.23,0.99,0.00,15.99,18.78,22.13,14.24,46.63,1013.19,2059.99,3073.05,2877.78,3282.23,599.97,608.33,8.00,0000 0000 0000 0000 000000
2017-12-20 03:28:01,0.37,1.01,0.00,16.08,18.81,22.20,14.26,46.66,1013.08,2059.98,3065.27,2873.52,3277.34,600.03,608.13,8.05,0000 0000 0000 0000 000000
2017-12-20 03:33:02,0.28,1.02,0.00,16.16,18.84,22.29,14.20,46.63,1013.07,2059.96,3058.39,2869.77,3273.03,599.92,608.01,8.10,0000 0000 0000 0000 000000
2017-12-20 03:38:04,0.75,1.05,0.00,16.18,18.87,22.30,14.12,46.74,1013.17,2059.90,3041.42,2862.14,3264.30,599.92,607.93,8.15,0000 0000 0000 0000 000000
2017-12-20 03:43:05,0.26,1.08,0.00,16.20,18.89,22.24,14.29,46.69,1013.16,2059.40,3030.63,2856.71,3258.31,600.32,608.30,8.20,0000 0000 0000 0000 000000
2017-12-20 03:48:06,0.13,1.09,0.00,16.24,18.93,22.28,14.11,46.58,1013.20,2059.14,3027.57,2854.70,3256.02,599.70,607.59,8.25,0000 0000 0000 0000 000000
2017-12-20 03:53:07,0.15,1.09,0.00,16.25,18.95,22.27,14.12,46.72,1013.20,2059.06,3024.10,2852.48,3253.57,600.13,607.82,8.30,0000 0000 0000 0000 000000
2017-12-20 03:58:09,0.21,1.10,0.00,16.25,18.98,22.31,14.25,46.63,1013.20,2059.02,3019.97,2849.90,3250.56,599.97,607.82,8.35,0000 0000 0000 0000 000000
2017-12-20 04:03:10,0.25,1.12,0.00,16.24,19.01,22.34,14.16,46.67,1013.20,2059.01,3014.80,2846.50,3246.63,600.06,607.97,8.41,0000 0000 0000 0000 000000
2017-12-20 04:08:12,0.16,1.13,0.00,16.23,19.03,22.39,14.24,46.69,1013.20,2059.00,3011.53,2844.28,3244.06,600.22,608.10,8.46,0000 0000 0000 0000 000000
2017-12-20 04:13:13,0.15,1.13,0.00,16.22,19.06,22.44,14.21,46.78,1013.20,2059.00,3008.36,2842.18,3241.74,599.99,607.86,8.51,0000 0000 0000 0000 000000
2017-12-20 04:18:14,0.12,1.14,0.00,16.22,19.09,22.49,14.18,46.82,1013.20,2058.98,3005.93,2840.47,3239.72,599.99,607.95,8.56,0000 0000 0000 0000 000000
2017-12-20 04:23:15,0.07,1.15,0.00,16.21,19.12,22.51,14.20,46.78,1013.22,2058.90,3003.99,2839.08,3238.25,599.90,607.88,8.61,0000 0000 0000 0000 000000
2017-12-20 04:28:16,0.08,1.15,0.00,16.21,19.14,22.53,14.24,46.82,1013.24,2058.80,3002.43,2837.83,3236.75,600.04,608.04,8.66,0000 0000 0000 0000 000000
2017-12-20 04:33:18,0.04,1.15,0.00,16.21,19.17,22.54,14.17,46.81,1013.21,2058.42,3000.75,2836.71,3235.43,599.99,608.07,8.71,0000 0000 0000 0000 000000
2017-12-20 04:38:19,0.07,1.16,0.00,16.22,19.20,22.53,14.26,46.90,1013.22,2058.10,2999.02,2835.52,3233.99,599.77,607.78,8.76,0000 0000 0000 0000 000000
2017-12-20 04:43:20,0.15,1.16,0.00,16.24,19.23,22.56,14.22,46.77,1013.21,2058.03,2996.41,2833.56,3231.63,600.01,607.94,8.81,0000 0000 0000 0000 000000
2017-12-20 04:48:22,0.16,1.17,0.00,16.24,19.25,22.61,14.13,46.77,1013.21,2058.01,2993.10,2831.40,3229.13,599.60,607.47,8.86,0000 0000 0000 0000 000000
2017-12-20 04:53:23,0.15,1.18,0.00,16.24,19.28,22.68,14.23,46.85,1013.20,2058.00,2990.14,2829.42,3226.86,599.85,607.74,8.91,0000 0000 0000 0000 000000
2017-12-20 04:58:24,0.18,1.19,0.00,16.23,19.29,22.70,14.28,46.87,1013.20,2057.99,2986.75,2827.14,3224.24,600.20,608.18,8.96,0000 0000 0000 0000 000000
2017-12-20 05:03:25,0.15,1.19,0.00,16.19,19.32,22.70,14.23,46.92,1013.20,2057.98,2983.64,2825.02,3221.82,599.93,607.90,9.01,0000 0000 0000 0000 000000
2017-12-20 05:08:27,0.12,1.20,0.00,16.21,19.34,22.71,14.30,46.80,1013.21,2057.96,2981.06,2823.23,3219.76,600.13,608.07,9.06,0000 0000 0000 0000 000000
2017-12-20 05:13:28,0.11,1.21,0.00,16.22,19.36,22.80,14.28,46.75,1013.22,2057.86,2978.63,2821.57,3217.82,599.91,607.80,9.11,0000 0000 0000 0000 000000
2017-12-20 05:18:29,0.11,1.21,0.00,16.23,19.38,22.82,14.26,46.95,1013.24,2057.57,2975.72,2819.66,3215.68,600.42,608.31,9.16,0000 0000 0000 0000 000000
2017-12-20 05:23:30,0.11,1.22,0.00,16.24,19.40,22.81,14.30,46.90,1013.33,2057.29,2973.03,2817.81,3213.60,599.96,607.95,9.21,0000 0000 0000 0000 000000
2017-12-20 05:28:31,0.09,1.22,0.00,16.23,19.42,22.80,14.18,47.03,1013.25,2057.08,2970.80,2816.32,3211.75,600.00,607.92,9.26,0000 0000 0000 0000 000000
2017-12-20 05:33:32,0.08,1.23,0.00,16.23,19.44,22.86,14.29,47.09,1013.25,2057.06,2968.98,2815.05,3210.20,599.88,607.83,9.31,0000 0000 0000 0000 000000
2017-12-20 05:38:34,0.10,1.23,0.00,16.24,19.46,22.85,14.20,47.06,1013.27,2057.00,2967.14,2813.74,3208.58,600.00,607.83,9.36,0000 0000 0000 0000 000000
2017-12-20 05:43:35,0.09,1.24,0.00,16.25,19.47,22.87,14.30,47.12,1013.36,2057.00,2965.26,2812.52,3207.18,600.24,608.22,9.41,0000 0000 0000 0000 000000
2017-12-20 05:48:36,0.10,1.24,0.00,16.28,19.49,22.87,14.22,46.98,1013.50,2057.00,2963.27,2811.13,3205.62,600.12,608.12,9.46,0000 0000 0000 0000 000000
2017-12-20 05:53:37,0.10,1.25,0.00,16.29,19.50,22.89,14.19,46.98,1013.67,2057.00,2961.57,2809.84,3204.06,599.70,607.89,9.51,0000 0000 0000 0000 000000
2017-12-20 05:58:39,0.10,1.25,0.00,16.28,19.52,22.93,14.28,46.96,1013.69,2056.99,2959.65,2808.50,3202.43,599.52,607.62,9.56,0000 0000 0000 0000 000000
2017-12-20 06:03:40,0.07,1.26,0.00,16.26,19.53,22.95,14.22,47.07,1013.66,2056.98,2958.08,2807.40,3201.00,600.20,608.35,9.61,0000 0000 0000 0000 000000
2017-12-20 06:08:41,0.08,1.26,0.00,16.24,19.54,22.92,14.23,46.97,1013.67,2056.98,2956.53,2806.35,3199.82,599.95,608.13,9.66,0000 0000 0000 0000 000000
2017-12-20 06:13:43,0.07,1.27,0.00,16.26,19.55,22.94,14.20,47.02,1013.68,2056.93,2954.90,2805.27,3198.65,599.59,607.71,9.71,0000 0000 0000 0000 000000
2017-12-20 06:18:44,0.08,1.27,0.00,16.28,19.57,22.93,14.28,47.05,1013.68,2056.89,2953.35,2804.16,3197.39,600.14,608.14,9.76,0000 0000 0000 0000 000000
2017-12-20 06:23:45,0.07,1.27,0.00,16.28,19.57,22.92,14.20,46.99,1013.68,2056.68,2951.55,2802.96,3196.04,599.64,607.83,9.81,0000 0000 0000 0000 000000
2017-12-20 06:28:47,0.09,1.28,0.00,16.29,19.58,22.90,14.25,46.98,1013.69,2056.70,2949.82,2801.76,3194.70,600.08,608.24,9.86,0000 0000 0000 0000 000000
2017-12-20 06:33:48,0.07,1.28,0.00,16.29,19.59,22.94,14.25,46.84,1013.69,2056.31,2947.95,2800.46,3193.03,599.81,608.06,9.91,0000 0000 0000 0000 000000
2017-12-20 06:38:49,0.10,1.29,0.00,16.25,19.59,23.01,14.22,46.77,1013.69,2056.15,2945.58,2798.82,3191.19,599.89,607.99,9.96,0000 0000 0000 0000 000000
2017-12-20 06:43:50,0.12,1.29,0.00,16.26,19.61,22.97,14.17,46.82,1013.69,2056.03,2943.12,2797.17,3189.24,600.00,608.16,10.01,0000 0000 0000 0000 000000
2017-12-20 06:48:52,0.12,1.30,0.00,16.27,19.62,22.98,14.19,46.78,1013.69,2056.04,2940.82,2795.64,3187.50,599.81,608.00,10.06,0000 0000 0000 0000 000000
2017-12-20 06:53:53,0.11,1.31,0.00,16.28,19.62,23.01,14.36,46.88,1013.69,2056.01,2938.48,2794.03,3185.65,599.86,607.98,10.11,0000 0000 0000 0000 000000
2017-12-20 06:58:54,0.13,1.31,0.00,16.29,19.62,23.03,14.23,46.83,1013.70,2056.01,2935.85,2792.30,3183.61,600.15,608.24,10.16,0000 0000 0000 0000 000000
2017-12-20 07:03:56,0.13,1.32,0.00,16.28,19.64,22.99,14.25,46.77,1013.70,2056.00,2933.26,2790.55,3181.57,600.09,608.21,10.21,0000 0000 0000 0000 000000
2017-12-20 07:08:57,0.12,1.33,0.00,16.27,19.64,23.01,14.27,46.74,1013.70,2056.00,2930.82,2788.95,3179.79,600.20,608.33,10.26,0000 0000 0000 0000 000000
2017-12-20 07:13:58,0.17,1.34,0.00,16.27,19.64,23.02,14.27,46.86,1013.73,2056.00,2927.71,2786.96,3177.55,600.31,608.50,10.31,0000 0000 0000 0000 000000
2017-12-20 07:18:59,0.20,1.35,0.00,16.28,19.64,22.96,14.18,46.84,1013.72,2056.00,2923.74,2784.40,3174.75,599.88,608.05,10.36,0000 0000 0000 0000 000000
2017-12-20 07:24:01,0.19,1.35,0.00,16.28,19.65,23.02,14.20,46.85,1013.79,2056.00,2920.06,2781.95,3172.00,599.93,608.11,10.41,0000 0000 0000 0000 000000
2017-12-20 07:29:02,0.13,1.36,0.00,16.27,19.66,23.02,14.42,46.78,1013.79,2056.00,2917.24,2780.07,3169.83,600.43,608.68,10.46,0000 0000 0000 0000 000000
2017-12-20 07:34:03,0.12,1.37,0.00,16.27,19.66,23.05,14.19,46.77,1013.93,2056.00,2914.89,2778.57,3168.04,599.99,608.28,10.51,0000 0000 0000 0000 000000
2017-12-20 07:39:05,0.10,1.37,0.00,16.27,19.67,23.01,14.21,46.70,1014.00,2056.00,2912.85,2777.13,3166.37,600.16,608.53,10.56,0000 0000 0000 0000 000000
2017-12-20 07:44:06,0.11,1.38,0.00,16.28,19.67,23.10,14.24,46.81,1014.06,2056.00,2910.81,2775.73,3164.70,599.84,608.29,10.61,0000 0000 0000 0000 000000
2017-12-20 07:49:07,0.10,1.39,0.00,16.28,19.67,22.98,14.31,46.88,1014.09,2055.99,2908.75,2774.37,3163.11,600.38,608.86,10.66,0000 0000 0000 0000 000000
2017-12-20 07:54:08,0.10,1.39,0.00,16.27,19.67,23.06,14.28,46.85,1014.17,2055.98,2906.79,2773.04,3161.58,600.03,608.51,10.72,0000 0000 0000 0000 000000
2017-12-20 07:59:10,0.07,1.40,0.00,16.24,19.67,23.01,14.19,46.81,1014.17,2055.98,2905.13,2771.98,3160.44,599.73,608.18,10.77,0000 0000 0000 0000 000000
2017-12-20 08:04:11,0.08,1.40,0.00,16.24,19.67,23.02,14.28,46.83,1014.16,2055.99,2903.72,2771.01,3159.33,600.15,608.59,10.82,0000 0000 0000 0000 000000
2017-12-20 08:09:12,0.07,1.40,0.00,16.27,19.67,23.05,14.27,46.75,1014.12,2055.98,2902.35,2770.02,3158.26,599.93,608.31,10.87,0000 0000 0000 0000 000000
2017-12-20 08:14:13,0.08,1.41,0.00,16.27,19.67,23.10,14.35,46.81,1014.15,2055.97,2900.78,2768.98,3156.89,600.04,608.32,10.92,0000 0000 0000 0000 000000
2017-12-20 08:19:15,0.07,1.41,0.00,16.27,19.67,23.05,14.15,46.80,1014.16,2055.98,2899.24,2768.00,3155.75,599.70,608.08,10.97,0000 0000 0000 0000 000000
2017-12-20 08:24:16,0.09,1.42,0.00,16.27,19.67,23.00,14.35,46.83,1014.17,2055.97,2897.70,2766.92,3154.46,600.23,608.62,11.02,0000 0000 0000 0000 000000
2017-12-20 08:29:17,0.08,1.42,0.00,16.27,19.67,23.00,14.22,46.81,1014.17,2055.98,2896.21,2765.81,3153.24,599.80,608.21,11.07,0000 0000 0000 0000 000000
2017-12-20 08:34:19,0.09,1.42,0.00,16.27,19.67,23.07,14.19,46.84,1014.17,2055.97,2894.50,2764.72,3151.98,600.24,608.67,11.12,0000 0000 0000 0000 000000
2017-12-20 08:39:20,0.08,1.43,0.00,16.24,19.67,23.03,14.30,46.81,1014.17,2055.96,2892.88,2763.70,3150.79,600.03,608.54,11.17,0000 0000 0000 0000 000000
2017-12-20 08:44:21,0.08,1.43,0.00,16.24,19.67,23.05,14.31,46.78,1014.17,2055.97,2891.41,2762.62,3149.59,600.23,608.74,11.22,0000 0000 0000 0000 000000
2017-12-20 08:49:22,0.07,1.44,0.00,16.23,19.67,23.11,14.35,46.74,1014.17,2055.98,2889.90,2761.68,3148.53,600.02,608.51,11.27,0000 0000 0000 0000 000000
2017-12-20 08:54:24,0.06,1.44,0.00,16.23,19.67,23.09,14.35,46.88,1014.18,2055.96,2888.60,2760.78,3147.40,600.23,608.66,11.32,0000 0000 0000 0000 000000
2017-12-20 08:59:25,0.05,1.44,0.00,16.22,19.67,23.08,14.23,46.76,1014.18,2055.97,2887.36,2760.02,3146.56,600.06,608.59,11.37,0000 0000 0000 0000 000000
2017-12-20 09:04:27,0.05,1.45,0.00,16.22,19.68,23.03,14.24,46.66,1014.18,2055.98,2886.38,2759.26,3145.84,599.97,608.49,11.42,0000 0000 0000 0000 000000
2017-12-20 09:09:27,0.03,1.45,0.00,16.20,19.68,23.09,14.28,46.73,1014.19,2055.99,2885.72,2758.88,3145.03,599.98,608.50,11.47,0000 0000 0000 0000 000000
2017-12-20 09:14:29,0.05,1.45,0.00,16.19,19.68,23.07,14.18,46.61,1014.18,2055.98,2884.96,2758.11,3144.36,599.83,608.45,11.52,0000 0000 0000 0000 000000
2017-12-20 09:19:30,0.04,1.45,0.00,16.19,19.69,23.10,14.25,46.66,1014.18,2055.97,2884.10,2757.71,3143.75,600.09,608.68,11.57,0000 0000 0000 0000 000000
2017-12-20 09:24:31,0.04,1.46,0.00,16.19,19.69,23.05,14.30,46.68,1014.19,2055.97,2883.33,2757.04,3143.04,600.16,608.76,11.62,0000 0000 0000 0000 000000
2017-12-20 09:29:33,0.05,1.46,0.00,16.19,19.69,23.05,14.30,46.80,1014.20,2055.94,2882.49,2756.53,3142.26,600.04,608.58,11.67,0000 0000 0000 0000 000000
2017-12-20 09:34:34,0.02,1.46,0.00,16.18,19.68,23.10,14.34,46.88,1014.19,2055.97,2881.76,2756.03,3141.99,599.95,608.57,11.72,0000 0000 0000 0000 000000
2017-12-20 09:39:36,0.03,1.46,0.00,16.18,19.68,23.05,14.34,46.77,1014.18,2055.97,2881.01,2755.79,3141.40,600.29,608.89,11.77,0000 0000 0000 0000 000000
2017-12-20 09:44:37,0.04,1.46,0.00,16.16,19.67,23.05,14.20,46.73,1014.19,2055.98,2880.29,2755.06,3140.98,599.77,608.46,11.82,0000 0000 0000 0000 000000
2017-12-20 09:49:38,0.04,1.46,0.00,16.16,19.67,23.02,14.29,46.67,1014.18,2055.97,2879.65,2754.77,3140.19,599.80,608.59,11.87,0000 0000 0000 0000 000000
2017-12-20 09:54:40,0.05,1.47,0.00,16.15,19.67,23.01,14.28,46.81,1014.20,2055.98,2878.70,2754.00,3139.65,599.70,608.32,11.92,0000 0000 0000 0000 000000
2017-12-20 09:59:41,0.05,1.47,0.00,16.14,19.67,23.01,14.32,46.92,1014.18,2055.98,2877.63,2753.23,3138.89,600.17,608.86,11.97,0000 0000 0000 0000 000000
2017-12-20 10:04:42,0.07,1.47,0.00,16.14,19.67,23.04,14.30,46.87,1014.18,2055.99,2876.39,2752.57,3137.87,600.10,608.84,12.02,0000 0000 0000 0000 000000
2017-12-20 10:09:44,0.09,1.48,0.00,16.14,19.67,23.00,14.27,46.85,1014.18,2055.99,2874.69,2751.43,3136.43,600.11,608.93,12.07,0000 0000 0000 0000 000000
2017-12-20 10:14:45,0.06,1.48,0.00,16.13,19.67,23.05,14.26,46.84,1014.19,2055.98,2873.31,2750.50,3135.11,599.96,608.70,12.12,0000 0000 0000 0000 000000
2017-12-20 10:19:46,0.04,1.48,0.00,16.10,19.67,23.03,14.29,46.78,1014.19,2055.98,2872.13,2749.85,3134.71,600.29,609.09,12.17,0000 0000 0000 0000 000000
2017-12-20 10:24:47,0.05,1.49,0.00,16.10,19.67,23.00,14.21,46.83,1014.22,2055.97,2871.09,2749.07,3133.87,599.74,608.59,12.22,0000 0000 0000 0000 000000
2017-12-20 10:29:48,0.05,1.49,0.00,16.09,19.67,23.02,14.19,46.89,1014.25,2055.98,2870.13,2748.45,3133.07,600.27,609.12,12.27,0000 0000 0000 0000 000000
2017-12-20 10:34:50,0.04,1.49,0.00,16.10,19.67,22.98,14.25,46.79,1014.36,2055.99,2869.39,2747.98,3132.41,599.98,608.92,12.32,0000 0000 0000 0000 000000
2017-12-20 10:39:51,0.05,1.49,0.00,16.09,19.67,22.94,14.25,46.89,1014.50,2055.99,2868.54,2747.25,3131.77,600.06,609.06,12.37,0000 0000 0000 0000 000000
2017-12-20 10:44:52,0.02,1.50,0.00,16.08,19.67,22.95,14.33,46.88,1014.50,2055.98,2867.81,2746.91,3131.03,600.02,608.94,12.42,0000 0000 0000 0000 000000
2017-12-20 10:49:53,0.05,1.50,0.00,16.09,19.67,22.96,14.31,46.85,1014.56,2055.98,2866.96,2746.12,3130.29,599.77,608.90,12.47,0000 0000 0000 0000 000000
2017-12-20 10:54:55,0.04,1.50,0.00,16.08,19.67,22.96,14.31,46.83,1014.58,2055.98,2866.11,2745.78,3129.74,600.25,609.34,12.52,0000 0000 0000 0000 000000
2017-12-20 10:59:56,0.04,1.50,0.00,16.06,19.67,22.99,14.27,46.88,1014.63,2055.99,2865.37,2745.06,3129.05,599.76,608.86,12.57,0000 0000 0000 0000 000000
2017-12-20 11:04:57,0.04,1.51,0.00,16.05,19.67,22.96,14.34,46.96,1014.66,2055.98,2864.58,2744.77,3128.59,600.19,609.43,12.62,0000 0000 0000 0000 000000
2017-12-20 11:09:59,0.04,1.51,0.00,16.05,19.67,22.97,14.26,46.78,1014.65,2055.98,2863.97,2744.05,3127.70,599.86,609.04,12.67,0000 0000 0000 0000 000000
2017-12-20 11:15:00,0.08,1.51,0.00,16.05,19.67,22.96,14.25,46.71,1014.60,2055.98,2862.82,2743.24,3126.53,599.89,609.03,12.72,0000 0000 0000 0000 000000
2017-12-20 11:20:02,0.07,1.52,0.00,16.06,19.67,22.94,14.22,46.74,1014.49,2055.98,2861.46,2742.33,3125.49,599.95,609.02,12.77,0000 0000 0000 0000 000000
2017-12-20 11:25:03,0.07,1.52,0.00,16.06,19.66,22.95,14.26,46.77,1014.52,2055.95,2859.91,2741.37,3124.36,600.03,609.20,12.82,0000 0000 0000 0000 000000
2017-12-20 11:30:04,0.07,1.52,0.00,16.05,19.64,22.92,14.33,46.70,1014.63,2055.97,2858.48,2740.45,3123.25,599.92,609.22,12.87,0000 0000 0000 0000 000000
2017-12-20 11:35:05,0.08,1.53,0.00,16.06,19.64,22.90,14.30,46.83,1014.66,2055.96,2856.77,2739.44,3122.17,600.36,609.53,12.92,0000 0000 0000 0000 000000
2017-12-20 11:40:06,0.05,1.53,0.00,16.07,19.64,22.91,14.25,46.75,1014.66,2055.98,2855.63,2738.81,3121.17,600.16,609.35,12.98,0000 0000 0000 0000 000000
2017-12-20 11:45:07,0.03,1.53,0.00,16.04,19.62,22.92,14.31,46.84,1014.66,2055.97,2854.72,2738.07,3120.83,599.77,608.97,13.03,0000 0000 0000 0000 000000
2017-12-20 11:50:09,0.03,1.54,0.00,16.02,19.62,22.91,14.26,46.92,1014.66,2055.97,2853.95,2737.73,3120.06,599.92,609.21,13.08,0000 0000 0000 0000 000000
2017-12-20 11:55:10,0.03,1.54,0.00,16.02,19.62,22.89,14.23,46.97,1014.66,2055.96,2853.12,2737.04,3119.89,600.00,609.35,13.13,0000 0000 0000 0000 000000
2017-12-20 12:00:11,0.02,1.54,0.00,16.02,19.60,22.95,14.22,46.82,1014.66,2055.98,2852.99,2737.00,3119.12,599.84,609.09,13.18,0000 0000 0000 0000 000000
2017-12-20 12:05:12,0.04,1.54,0.00,16.02,19.59,22.90,14.24,46.88,1014.66,2055.98,2852.24,2736.54,3118.90,599.85,609.12,13.23,0000 0000 0000 0000 000000
2017-12-20 12:10:14,0.04,1.54,0.00,16.00,19.59,22.91,14.40,46.95,1014.66,2055.99,2851.46,2736.02,3118.13,600.18,609.43,13.28,0000 0000 0000 0000 000000
2017-12-20 12:15:15,0.03,1.54,0.00,16.00,19.59,22.91,14.31,46.97,1014.66,2055.99,2850.86,2735.72,3117.71,600.32,609.62,13.33,0000 0000 0000 0000 000000
2017-12-20 12:20:16,0.03,1.55,0.00,16.00,19.58,22.94,14.27,46.88,1014.66,2055.98,2850.06,2735.04,3117.02,600.11,609.50,13.38,0000 0000 0000 0000 000000
2017-12-20 12:25:17,0.05,1.55,0.00,16.01,19.57,22.90,14.22,46.94,1014.66,2055.99,2849.26,2734.66,3116.45,599.82,609.00,13.43,0000 0000 0000 0000 000000
2017-12-20 12:30:18,0.03,1.55,0.00,16.00,19.57,22.86,14.30,47.02,1014.66,2055.99,2848.35,2734.01,3115.89,600.13,609.40,13.48,0000 0000 0000 0000 000000
2017-12-20 12:35:20,0.06,1.55,0.00,16.00,19.57,22.88,14.37,47.02,1014.66,2055.99,2847.22,2733.25,3115.05,600.10,609.39,13.53,0000 0000 0000 0000 000000
2017-12-20 12:40:21,0.04,1.56,0.00,15.99,19.57,22.87,14.32,47.08,1014.66,2055.99,2846.28,2732.85,3114.24,600.27,609.61,13.58,0000 0000 0000 0000 000000
2017-12-20 12:45:23,0.04,1.56,0.00,16.00,19.57,22.92,14.34,47.10,1014.66,2055.99,2845.35,2732.07,3113.80,599.95,609.25,13.63,0000 0000 0000 0000 000000
2017-12-20 12:50:24,0.05,1.56,0.00,15.98,19.56,22.92,14.26,47.10,1014.66,2056.00,2844.50,2731.60,3113.02,600.20,609.50,13.68,0000 0000 0000 0000 000000
2017-12-20 12:55:25,0.04,1.56,0.00,15.97,19.55,22.90,14.28,47.15,1014.66,2056.00,2843.49,2731.01,3112.25,599.83,609.26,13.73,0000 0000 0000 0000 000000